{"data":{"norad_id":55787,"epoch":"2026-09-20T22:00:03.000096Z","epoch_age_seconds":67038,"freshness":"FRESH","line1":"1 55787U 23028AY  26263.91670139  .00085143  00000+0  58263-2 0  9998","line2":"2 55787  70.0009  72.2852 0004143 245.2054 265.4219 15.05612154  5723","mean_motion":15.05612154,"eccentricity":0.0004143,"inclination_deg":70.0009,"raan_deg":72.2852,"arg_perigee_deg":245.2054,"mean_anomaly_deg":265.4219,"bstar":0.0058263,"rev_number":572,"period_min":95.642160975807,"perigee_km":546.75707259689,"apogee_km":552.49741805057,"semimajor_km":6927.7642453237,"source":"CELESTRAK","updated_at":"2026-09-21T09:00:33.320762Z"}}